Location: Stilling
(56.0622°N, 9.9882°E)
Time: 00:16:35
(UTC+00:00)

Cosmos 1821 Rocket - Pass Details

Date: 13 July 2020
Orbit: 945 x 1004 km, 82.9° (Epoch: 03 August)

Event Time Altitude Azimuth Distance (km) Brightness Sun altitude
Exits shadow 22:56:55 16° 179° (S) 2,266 5.3 -12.1°
Maximum altitude 23:01:53 74° 97° (E) 990 4.0 -12.1°
Drops below altitude 10° 23:07:59 10° 14° (NNE) 2,683 7.6 -12.2°
Sets 23:10:29 0° 13° (NNE) 3,635 8.6 -12.2°
